Year,Month,Day,Hour,Minute,Value (Times are PST for windspeed in km/hr)
2008,08,27,00,00,0.60
2008,08,27,00,01,1.50
2008,08,27,00,02,1.60
2008,08,27,00,03,1.20
2008,08,27,00,04,2.60
2008,08,27,00,05,3.70
2008,08,27,00,06,0.70
2008,08,27,00,07,2.50
2008,08,27,00,08,3.70
2008,08,27,00,09,1.80
2008,08,27,00,10,1.60
2008,08,27,00,11,1.30
2008,08,27,00,12,0.90
2008,08,27,00,13,0.40
2008,08,27,00,14,3.30
2008,08,27,00,15,3.40
2008,08,27,00,16,1.50
2008,08,27,00,17,3.40
2008,08,27,00,18,1.70
2008,08,27,00,19,1.50
2008,08,27,00,20,0.40
2008,08,27,00,21,0.00
2008,08,27,00,22,0.00
2008,08,27,00,23,0.30
2008,08,27,00,24,0.10
2008,08,27,00,25,0.00
2008,08,27,00,26,1.40
2008,08,27,00,27,1.10
2008,08,27,00,28,0.80
2008,08,27,00,29,1.10
2008,08,27,00,30,2.20
2008,08,27,00,31,0.00
2008,08,27,00,32,0.10
2008,08,27,00,33,1.90
2008,08,27,00,34,2.00
2008,08,27,00,35,1.80
2008,08,27,00,36,0.00
2008,08,27,00,37,0.50
2008,08,27,00,38,0.00
2008,08,27,00,39,0.20
2008,08,27,00,40,0.20
2008,08,27,00,41,0.10
2008,08,27,00,42,0.80
2008,08,27,00,43,2.00
2008,08,27,00,44,0.10
2008,08,27,00,45,1.10
2008,08,27,00,46,2.00
2008,08,27,00,47,2.60
2008,08,27,00,48,2.90
2008,08,27,00,49,1.90
2008,08,27,00,50,1.90
2008,08,27,00,51,0.30
2008,08,27,00,52,0.00
2008,08,27,00,53,0.00
2008,08,27,00,54,0.00
2008,08,27,00,55,0.00
2008,08,27,00,56,0.00
2008,08,27,00,57,0.00
2008,08,27,00,58,0.00
2008,08,27,00,59,1.10
2008,08,27,01,00,0.00
2008,08,27,01,01,0.80
2008,08,27,01,02,0.70
2008,08,27,01,03,1.60
2008,08,27,01,04,1.70
2008,08,27,01,05,0.70
2008,08,27,01,06,0.80
2008,08,27,01,07,1.20
2008,08,27,01,08,0.00
2008,08,27,01,09,0.00
2008,08,27,01,10,0.00
2008,08,27,01,11,0.00
2008,08,27,01,12,0.50
2008,08,27,01,13,0.80
2008,08,27,01,14,0.60
2008,08,27,01,15,0.00
2008,08,27,01,16,0.60
2008,08,27,01,17,1.30
2008,08,27,01,18,0.60
2008,08,27,01,19,0.40
2008,08,27,01,20,0.50
2008,08,27,01,21,0.00
2008,08,27,01,22,0.20
2008,08,27,01,23,0.40
2008,08,27,01,24,0.20
2008,08,27,01,25,0.00
2008,08,27,01,26,0.00
2008,08,27,01,27,0.00
2008,08,27,01,28,0.00
2008,08,27,01,29,0.00
2008,08,27,01,30,0.00
2008,08,27,01,31,0.00
2008,08,27,01,32,0.20
2008,08,27,01,33,0.30
2008,08,27,01,34,2.60
2008,08,27,01,35,0.90
2008,08,27,01,36,0.70
2008,08,27,01,37,0.10
2008,08,27,01,38,0.00
2008,08,27,01,39,0.00
2008,08,27,01,40,0.00
2008,08,27,01,41,0.00
2008,08,27,01,42,0.00
2008,08,27,01,43,0.00
2008,08,27,01,44,0.00
2008,08,27,01,45,0.00
2008,08,27,01,46,0.00
2008,08,27,01,47,0.80
2008,08,27,01,48,0.40
2008,08,27,01,49,1.30
2008,08,27,01,50,1.30
2008,08,27,01,51,3.70
2008,08,27,01,52,3.50
2008,08,27,01,53,3.70
2008,08,27,01,54,2.40
2008,08,27,01,55,2.30
2008,08,27,01,56,1.60
2008,08,27,01,57,1.80
2008,08,27,01,58,2.00
2008,08,27,01,59,3.70
2008,08,27,02,00,1.80
2008,08,27,02,01,1.20
2008,08,27,02,02,2.40
2008,08,27,02,03,3.60
2008,08,27,02,04,2.10
2008,08,27,02,05,1.40
2008,08,27,02,06,5.40
2008,08,27,02,07,5.10
2008,08,27,02,08,4.80
2008,08,27,02,09,3.10
2008,08,27,02,10,3.20
2008,08,27,02,11,5.30
2008,08,27,02,12,2.10
2008,08,27,02,13,3.90
2008,08,27,02,14,3.30
2008,08,27,02,15,5.60
2008,08,27,02,16,5.50
2008,08,27,02,17,0.60
2008,08,27,02,18,1.40
2008,08,27,02,19,2.00
2008,08,27,02,20,7.60
2008,08,27,02,21,4.60
2008,08,27,02,22,4.40
2008,08,27,02,23,3.40
2008,08,27,02,24,5.90
2008,08,27,02,25,5.00
2008,08,27,02,26,4.40
2008,08,27,02,27,4.00
2008,08,27,02,28,6.20
2008,08,27,02,29,4.00
2008,08,27,02,30,4.50
2008,08,27,02,31,4.90
2008,08,27,02,32,3.80
2008,08,27,02,33,6.30
2008,08,27,02,34,4.40
2008,08,27,02,35,5.10
2008,08,27,02,36,4.30
2008,08,27,02,37,5.30
2008,08,27,02,38,3.80
2008,08,27,02,39,2.30
2008,08,27,02,40,6.00
2008,08,27,02,41,8.70
2008,08,27,02,42,2.80
2008,08,27,02,43,2.70
2008,08,27,02,44,5.20
2008,08,27,02,45,5.20
2008,08,27,02,46,6.40
2008,08,27,02,47,6.10
2008,08,27,02,48,5.30
2008,08,27,02,49,4.00
2008,08,27,02,50,5.80
2008,08,27,02,51,8.60
2008,08,27,02,52,5.90
2008,08,27,02,53,6.50
2008,08,27,02,54,6.30
2008,08,27,02,55,11.30
2008,08,27,02,56,5.80
2008,08,27,02,57,3.40
2008,08,27,02,58,4.50
2008,08,27,02,59,6.70
2008,08,27,03,00,7.20
2008,08,27,03,01,4.80
2008,08,27,03,02,6.10
2008,08,27,03,03,7.90
2008,08,27,03,04,5.30
2008,08,27,03,05,2.90
2008,08,27,03,06,2.40
2008,08,27,03,07,9.50
2008,08,27,03,08,7.20
2008,08,27,03,09,5.40
2008,08,27,03,10,5.30
2008,08,27,03,11,8.30
2008,08,27,03,12,5.20
2008,08,27,03,13,4.90
2008,08,27,03,14,4.10
2008,08,27,03,15,6.10
2008,08,27,03,16,3.70
2008,08,27,03,17,1.60
2008,08,27,03,18,1.70
2008,08,27,03,19,5.20
2008,08,27,03,20,4.20
2008,08,27,03,21,4.50
2008,08,27,03,22,4.60
2008,08,27,03,23,7.50
2008,08,27,03,24,5.20
2008,08,27,03,25,5.00
2008,08,27,03,26,2.60
2008,08,27,03,27,3.80
2008,08,27,03,28,6.90
2008,08,27,03,29,4.60
2008,08,27,03,30,5.90
2008,08,27,03,31,6.70
2008,08,27,03,32,6.70
2008,08,27,03,33,7.10
2008,08,27,03,34,7.80
2008,08,27,03,35,9.80
2008,08,27,03,36,6.90
2008,08,27,03,37,6.00
2008,08,27,03,38,5.80
2008,08,27,03,39,6.50
2008,08,27,03,40,6.30
2008,08,27,03,41,5.40
2008,08,27,03,42,4.80
2008,08,27,03,43,6.40
2008,08,27,03,44,3.70
2008,08,27,03,45,5.90
2008,08,27,03,46,5.10
2008,08,27,03,47,3.60
2008,08,27,03,48,2.50
2008,08,27,03,49,2.20
2008,08,27,03,50,6.00
2008,08,27,03,51,5.30
2008,08,27,03,52,7.70
2008,08,27,03,53,3.70
2008,08,27,03,54,6.30
2008,08,27,03,55,2.00
2008,08,27,03,56,4.90
2008,08,27,03,57,4.40
2008,08,27,03,58,4.20
2008,08,27,03,59,5.20
2008,08,27,04,00,3.30
2008,08,27,04,01,5.60
2008,08,27,04,02,9.90
2008,08,27,04,03,9.50
2008,08,27,04,04,3.60
2008,08,27,04,05,3.00
2008,08,27,04,06,3.40
2008,08,27,04,07,8.40
2008,08,27,04,08,5.30
2008,08,27,04,09,7.20
2008,08,27,04,10,6.00
2008,08,27,04,11,3.90
2008,08,27,04,12,4.20
2008,08,27,04,13,2.50
2008,08,27,04,14,1.40
2008,08,27,04,15,2.80
2008,08,27,04,16,5.00
2008,08,27,04,17,5.60
2008,08,27,04,18,3.50
2008,08,27,04,19,3.00
2008,08,27,04,20,4.50
2008,08,27,04,21,4.20
2008,08,27,04,22,2.70
2008,08,27,04,23,2.40
2008,08,27,04,24,3.80
2008,08,27,04,25,4.30
2008,08,27,04,26,5.30
2008,08,27,04,27,4.30
2008,08,27,04,28,4.90
2008,08,27,04,29,5.60
2008,08,27,04,30,6.60
2008,08,27,04,31,6.20
2008,08,27,04,32,6.40
2008,08,27,04,33,7.20
2008,08,27,04,34,3.40
2008,08,27,04,35,4.50
2008,08,27,04,36,3.80
2008,08,27,04,37,2.60
2008,08,27,04,38,2.10
2008,08,27,04,39,1.60
2008,08,27,04,40,1.60
2008,08,27,04,41,4.60
2008,08,27,04,42,5.10
2008,08,27,04,43,4.10
2008,08,27,04,44,3.10
2008,08,27,04,45,4.10
2008,08,27,04,46,2.30
2008,08,27,04,47,7.50
2008,08,27,04,48,6.30
2008,08,27,04,49,6.20
2008,08,27,04,50,3.60
2008,08,27,04,51,3.00
2008,08,27,04,52,2.90
2008,08,27,04,53,3.60
2008,08,27,04,54,4.00
2008,08,27,04,55,6.20
2008,08,27,04,56,4.60
2008,08,27,04,57,6.90
2008,08,27,04,58,4.50
2008,08,27,04,59,7.50
2008,08,27,05,00,8.80
2008,08,27,05,01,9.20
2008,08,27,05,02,5.10
2008,08,27,05,03,9.40
2008,08,27,05,04,3.50
2008,08,27,05,05,3.00
2008,08,27,05,06,8.20
2008,08,27,05,07,6.60
2008,08,27,05,08,4.10
2008,08,27,05,09,9.10
2008,08,27,05,10,3.90
2008,08,27,05,11,3.80
2008,08,27,05,12,6.90
2008,08,27,05,13,4.20
2008,08,27,05,14,3.70
2008,08,27,05,15,5.30
2008,08,27,05,16,5.30
2008,08,27,05,17,7.80
2008,08,27,05,18,7.10
2008,08,27,05,19,5.60
2008,08,27,05,20,4.90
2008,08,27,05,21,3.70
2008,08,27,05,22,2.70
2008,08,27,05,23,4.10
2008,08,27,05,24,3.50
2008,08,27,05,25,4.60
2008,08,27,05,26,3.70
2008,08,27,05,27,3.60
2008,08,27,05,28,5.50
2008,08,27,05,29,5.20
2008,08,27,05,30,4.30
2008,08,27,05,31,5.20
2008,08,27,05,32,4.90
2008,08,27,05,33,5.10
2008,08,27,05,34,3.40
2008,08,27,05,35,4.50
2008,08,27,05,36,4.20
2008,08,27,05,37,3.90
2008,08,27,05,38,4.80
2008,08,27,05,39,2.70
2008,08,27,05,40,5.30
2008,08,27,05,41,4.50
2008,08,27,05,42,5.30
2008,08,27,05,43,3.50
2008,08,27,05,44,7.30
2008,08,27,05,45,5.40
2008,08,27,05,46,4.40
2008,08,27,05,47,4.50
2008,08,27,05,48,2.90
2008,08,27,05,49,5.60
2008,08,27,05,50,5.00
2008,08,27,05,51,3.70
2008,08,27,05,52,3.10
2008,08,27,05,53,2.70
2008,08,27,05,54,3.70
2008,08,27,05,55,3.30
2008,08,27,05,56,1.80
2008,08,27,05,57,1.80
2008,08,27,05,58,0.40
2008,08,27,05,59,0.80
2008,08,27,06,00,0.20
2008,08,27,06,01,0.50
2008,08,27,06,02,0.50
2008,08,27,06,03,0.50
2008,08,27,06,04,1.60
2008,08,27,06,05,1.40
2008,08,27,06,06,3.80
2008,08,27,06,07,1.00
2008,08,27,06,08,0.30
2008,08,27,06,09,0.00
2008,08,27,06,10,3.30
2008,08,27,06,11,0.20
2008,08,27,06,12,0.20
2008,08,27,06,13,0.50
2008,08,27,06,14,1.50
2008,08,27,06,15,1.10
2008,08,27,06,16,1.20
2008,08,27,06,17,0.40
2008,08,27,06,18,0.30
2008,08,27,06,19,0.40
2008,08,27,06,20,0.60
2008,08,27,06,21,0.40
2008,08,27,06,22,0.40
2008,08,27,06,23,0.40
2008,08,27,06,24,0.70
2008,08,27,06,25,1.10
2008,08,27,06,26,0.00
2008,08,27,06,27,1.50
2008,08,27,06,28,2.60
2008,08,27,06,29,0.00
2008,08,27,06,30,0.10
2008,08,27,06,31,2.00
2008,08,27,06,32,0.40
2008,08,27,06,33,0.00
2008,08,27,06,34,0.20
2008,08,27,06,35,0.00
2008,08,27,06,36,0.00
2008,08,27,06,37,0.00
2008,08,27,06,38,0.00
2008,08,27,06,39,0.10
2008,08,27,06,40,0.00
2008,08,27,06,41,0.00
2008,08,27,06,42,0.10
2008,08,27,06,43,0.00
2008,08,27,06,44,0.00
2008,08,27,06,45,0.00
2008,08,27,06,46,0.10
2008,08,27,06,47,0.00
2008,08,27,06,48,0.00
2008,08,27,06,49,0.00
2008,08,27,06,50,0.00
2008,08,27,06,51,0.00
2008,08,27,06,52,0.00
2008,08,27,06,53,0.00
2008,08,27,06,54,0.00
2008,08,27,06,55,0.00
2008,08,27,06,56,0.00
2008,08,27,06,57,0.00
2008,08,27,06,58,0.00
2008,08,27,06,59,0.00
2008,08,27,07,00,0.00
2008,08,27,07,01,0.00
2008,08,27,07,02,0.00
2008,08,27,07,03,0.00
2008,08,27,07,04,0.00
2008,08,27,07,05,0.00
2008,08,27,07,06,0.00
2008,08,27,07,07,0.00
2008,08,27,07,08,0.00
2008,08,27,07,09,0.00
2008,08,27,07,10,0.00
2008,08,27,07,11,0.00
2008,08,27,07,12,0.00
2008,08,27,07,13,0.00
2008,08,27,07,14,0.00
2008,08,27,07,15,0.00
2008,08,27,07,16,0.00
2008,08,27,07,17,0.40
2008,08,27,07,18,0.30
2008,08,27,07,19,0.00
2008,08,27,07,20,0.00
2008,08,27,07,21,0.00
2008,08,27,07,22,0.20
2008,08,27,07,23,0.40
2008,08,27,07,24,0.00
2008,08,27,07,25,0.10
2008,08,27,07,26,0.00
2008,08,27,07,27,0.00
2008,08,27,07,28,0.00
2008,08,27,07,29,0.70
2008,08,27,07,30,0.10
2008,08,27,07,31,0.00
2008,08,27,07,32,0.00
2008,08,27,07,33,0.00
2008,08,27,07,34,0.00
2008,08,27,07,35,0.00
2008,08,27,07,36,0.00
2008,08,27,07,37,0.00
2008,08,27,07,38,1.00
2008,08,27,07,39,0.50
2008,08,27,07,40,0.00
2008,08,27,07,41,0.90
2008,08,27,07,42,0.50
2008,08,27,07,43,0.50
2008,08,27,07,44,0.20
2008,08,27,07,45,0.50
2008,08,27,07,46,1.10
2008,08,27,07,47,0.40
2008,08,27,07,48,0.90
2008,08,27,07,49,0.30
2008,08,27,07,50,1.10
2008,08,27,07,51,0.50
2008,08,27,07,52,1.80
2008,08,27,07,53,0.70
2008,08,27,07,54,1.10
2008,08,27,07,55,1.90
2008,08,27,07,56,1.50
2008,08,27,07,57,0.70
2008,08,27,07,58,0.30
2008,08,27,07,59,0.50
2008,08,27,08,00,0.40
2008,08,27,08,01,0.80
2008,08,27,08,02,0.40
2008,08,27,08,03,0.70
2008,08,27,08,04,0.50
2008,08,27,08,05,0.40
2008,08,27,08,06,0.10
2008,08,27,08,07,0.40
2008,08,27,08,08,0.10
2008,08,27,08,09,0.10
2008,08,27,08,10,0.20
2008,08,27,08,11,0.10
2008,08,27,08,12,0.00
2008,08,27,08,13,0.00
2008,08,27,08,14,0.00
2008,08,27,08,15,0.20
2008,08,27,08,16,0.00
2008,08,27,08,17,0.00
2008,08,27,08,18,0.40
2008,08,27,08,19,0.00
2008,08,27,08,20,0.20
2008,08,27,08,21,0.00
2008,08,27,08,22,0.30
2008,08,27,08,23,0.00
2008,08,27,08,24,0.40
2008,08,27,08,25,0.10
2008,08,27,08,26,0.00
2008,08,27,08,27,0.00
2008,08,27,08,28,0.20
2008,08,27,08,29,0.10
2008,08,27,08,30,0.00
2008,08,27,08,31,0.00
2008,08,27,08,32,0.00
2008,08,27,08,33,1.80
2008,08,27,08,34,0.40
2008,08,27,08,35,0.60
2008,08,27,08,36,0.40
2008,08,27,08,37,0.10
2008,08,27,08,38,0.00
2008,08,27,08,39,0.00
2008,08,27,08,40,0.00
2008,08,27,08,41,0.00
2008,08,27,08,42,0.30
2008,08,27,08,43,0.20
2008,08,27,08,44,0.50
2008,08,27,08,45,0.40
2008,08,27,08,46,0.90
2008,08,27,08,47,1.00
2008,08,27,08,48,1.00
2008,08,27,08,49,2.50
2008,08,27,08,50,2.40
2008,08,27,08,51,3.60
2008,08,27,08,52,0.70
2008,08,27,08,53,0.10
2008,08,27,08,54,2.80
2008,08,27,08,55,0.60
2008,08,27,08,56,0.10
2008,08,27,08,57,0.00
2008,08,27,08,58,0.00
2008,08,27,08,59,0.00
2008,08,27,09,00,1.70
2008,08,27,09,01,0.00
2008,08,27,09,02,0.00
2008,08,27,09,03,0.30
2008,08,27,09,04,0.00
2008,08,27,09,05,0.00
2008,08,27,09,06,0.40
2008,08,27,09,07,0.20
2008,08,27,09,08,0.40
2008,08,27,09,09,0.10
2008,08,27,09,10,0.60
2008,08,27,09,11,0.20
2008,08,27,09,12,0.70
2008,08,27,09,13,1.10
2008,08,27,09,14,1.90
2008,08,27,09,15,0.60
2008,08,27,09,16,0.20
2008,08,27,09,17,4.90
2008,08,27,09,18,3.80
2008,08,27,09,19,1.80
2008,08,27,09,20,2.10
2008,08,27,09,21,1.10
2008,08,27,09,22,5.00
2008,08,27,09,23,5.20
2008,08,27,09,24,1.30
2008,08,27,09,25,0.10
2008,08,27,09,26,0.70
2008,08,27,09,27,0.20
2008,08,27,09,28,2.50
2008,08,27,09,29,2.20
2008,08,27,09,30,3.70
2008,08,27,09,31,2.10
2008,08,27,09,32,1.90
2008,08,27,09,33,1.10
2008,08,27,09,34,0.00
2008,08,27,09,35,0.10
2008,08,27,09,36,0.00
2008,08,27,09,37,1.80
2008,08,27,09,38,2.00
2008,08,27,09,39,1.70
2008,08,27,09,40,0.60
2008,08,27,09,41,0.00
2008,08,27,09,42,1.00
2008,08,27,09,43,1.80
2008,08,27,09,44,1.40
2008,08,27,09,45,0.20
2008,08,27,09,46,5.70
2008,08,27,09,47,3.30
2008,08,27,09,48,0.30
2008,08,27,09,49,3.80
2008,08,27,09,50,3.50
2008,08,27,09,51,1.20
2008,08,27,09,52,0.60
2008,08,27,09,53,0.20
2008,08,27,09,54,0.10
2008,08,27,09,55,0.20
2008,08,27,09,56,0.20
2008,08,27,09,57,0.30
2008,08,27,09,58,0.00
2008,08,27,09,59,0.20
2008,08,27,10,00,0.10
2008,08,27,10,01,0.00
2008,08,27,10,02,6.20
2008,08,27,10,03,5.10
2008,08,27,10,04,2.40
2008,08,27,10,05,0.30
2008,08,27,10,06,1.60
2008,08,27,10,07,0.00
2008,08,27,10,08,0.70
2008,08,27,10,09,0.00
2008,08,27,10,10,0.10
2008,08,27,10,11,1.00
2008,08,27,10,12,3.60
2008,08,27,10,13,2.90
2008,08,27,10,14,1.10
2008,08,27,10,15,6.10
2008,08,27,10,16,5.00
2008,08,27,10,17,2.60
2008,08,27,10,18,0.20
2008,08,27,10,19,0.40
2008,08,27,10,20,2.80
2008,08,27,10,21,6.40
2008,08,27,10,22,2.40
2008,08,27,10,23,0.30
2008,08,27,10,24,0.00
2008,08,27,10,25,0.00
2008,08,27,10,26,0.30
2008,08,27,10,27,1.70
2008,08,27,10,28,1.80
2008,08,27,10,29,5.50
2008,08,27,10,30,1.90
2008,08,27,10,31,3.80
2008,08,27,10,32,2.40
2008,08,27,10,33,0.90
2008,08,27,10,34,4.70
2008,08,27,10,35,7.30
2008,08,27,10,36,6.80
2008,08,27,10,37,3.00
2008,08,27,10,38,5.40
2008,08,27,10,39,3.90
2008,08,27,10,40,0.90
2008,08,27,10,41,0.20
2008,08,27,10,42,0.30
2008,08,27,10,43,1.60
2008,08,27,10,44,0.70
2008,08,27,10,45,1.30
2008,08,27,10,46,0.00
2008,08,27,10,47,0.10
2008,08,27,10,48,0.00
2008,08,27,10,49,0.30
2008,08,27,10,50,2.80
2008,08,27,10,51,5.50
2008,08,27,10,52,1.70
2008,08,27,10,53,1.80
2008,08,27,10,54,0.10
2008,08,27,10,55,1.20
2008,08,27,10,56,0.10
2008,08,27,10,57,0.00
2008,08,27,10,58,0.70
2008,08,27,10,59,0.60
2008,08,27,11,00,1.90
2008,08,27,11,01,6.00
2008,08,27,11,02,2.40
2008,08,27,11,03,1.70
2008,08,27,11,04,1.50
2008,08,27,11,05,3.80
2008,08,27,11,06,3.40
2008,08,27,11,07,0.60
2008,08,27,11,08,6.50
2008,08,27,11,09,6.30
2008,08,27,11,10,2.50
2008,08,27,11,11,1.30
2008,08,27,11,12,2.10
2008,08,27,11,13,0.60
2008,08,27,11,14,2.60
2008,08,27,11,15,1.00
2008,08,27,11,16,0.70
2008,08,27,11,17,0.10
2008,08,27,11,18,0.10
2008,08,27,11,19,0.20
2008,08,27,11,20,0.20
2008,08,27,11,21,0.30
2008,08,27,11,22,0.10
2008,08,27,11,23,0.30
2008,08,27,11,24,2.70
2008,08,27,11,25,10.70
2008,08,27,11,26,1.50
2008,08,27,11,27,7.20
2008,08,27,11,28,5.10
2008,08,27,11,29,2.50
2008,08,27,11,30,7.40
2008,08,27,11,31,8.20
2008,08,27,11,32,8.10
2008,08,27,11,33,2.80
2008,08,27,11,34,3.30
2008,08,27,11,35,3.20
2008,08,27,11,36,3.00
2008,08,27,11,37,5.60
2008,08,27,11,38,6.10
2008,08,27,11,39,2.10
2008,08,27,11,40,11.50
2008,08,27,11,41,8.80
2008,08,27,11,42,3.30
2008,08,27,11,43,5.00
2008,08,27,11,44,4.70
2008,08,27,11,45,1.20
2008,08,27,11,46,6.50
2008,08,27,11,47,5.00
2008,08,27,11,48,4.10
2008,08,27,11,49,1.40
2008,08,27,11,50,0.20
2008,08,27,11,51,0.90
2008,08,27,11,52,2.60
2008,08,27,11,53,0.60
2008,08,27,11,54,0.60
2008,08,27,11,55,2.60
2008,08,27,11,56,8.80
2008,08,27,11,57,6.80
2008,08,27,11,58,7.10
2008,08,27,11,59,8.10
2008,08,27,12,00,7.40
2008,08,27,12,01,4.80
2008,08,27,12,02,5.10
2008,08,27,12,03,6.20
2008,08,27,12,04,5.30
2008,08,27,12,05,8.10
2008,08,27,12,06,1.30
2008,08,27,12,07,4.20
2008,08,27,12,08,1.10
2008,08,27,12,09,1.20
2008,08,27,12,10,6.90
2008,08,27,12,11,11.80
2008,08,27,12,12,9.40
2008,08,27,12,13,5.70
2008,08,27,12,14,3.10
2008,08,27,12,15,6.90
2008,08,27,12,16,6.60
2008,08,27,12,17,9.80
2008,08,27,12,18,8.70
2008,08,27,12,19,1.80
2008,08,27,12,20,3.80
2008,08,27,12,21,2.60
2008,08,27,12,22,4.00
2008,08,27,12,23,6.70
2008,08,27,12,24,2.70
2008,08,27,12,25,7.30
2008,08,27,12,26,3.60
2008,08,27,12,27,1.40
2008,08,27,12,28,5.50
2008,08,27,12,29,2.50
2008,08,27,12,30,2.60
2008,08,27,12,31,9.10
2008,08,27,12,32,8.70
2008,08,27,12,33,7.70
2008,08,27,12,34,6.90
2008,08,27,12,35,4.80
2008,08,27,12,36,8.60
2008,08,27,12,37,3.30
2008,08,27,12,38,8.60
2008,08,27,12,39,7.20
2008,08,27,12,40,5.50
2008,08,27,12,41,5.10
2008,08,27,12,42,2.70
2008,08,27,12,43,1.40
2008,08,27,12,44,1.70
2008,08,27,12,45,9.30
2008,08,27,12,46,6.40
2008,08,27,12,47,8.90
2008,08,27,12,48,11.30
2008,08,27,12,49,9.90
2008,08,27,12,50,17.30
2008,08,27,12,51,6.40
2008,08,27,12,52,4.60
2008,08,27,12,53,5.10
2008,08,27,12,54,7.50
2008,08,27,12,55,8.10
2008,08,27,12,56,7.30
2008,08,27,12,57,5.90
2008,08,27,12,58,3.70
2008,08,27,12,59,4.30
2008,08,27,13,00,4.50
2008,08,27,13,01,6.80
2008,08,27,13,02,4.60
2008,08,27,13,03,7.20
2008,08,27,13,04,5.80
2008,08,27,13,05,19.70
2008,08,27,13,06,9.70
2008,08,27,13,07,1.60
2008,08,27,13,08,6.20
2008,08,27,13,09,7.70
2008,08,27,13,10,2.70
2008,08,27,13,11,4.80
2008,08,27,13,12,5.00
2008,08,27,13,13,2.00
2008,08,27,13,14,4.20
2008,08,27,13,15,1.90
2008,08,27,13,16,9.00
2008,08,27,13,17,9.20
2008,08,27,13,18,5.40
2008,08,27,13,19,5.70
2008,08,27,13,20,7.30
2008,08,27,13,21,5.90
2008,08,27,13,22,6.30
2008,08,27,13,23,3.00
2008,08,27,13,24,3.60
2008,08,27,13,25,6.40
2008,08,27,13,26,2.20
2008,08,27,13,27,5.10
2008,08,27,13,28,4.10
2008,08,27,13,29,3.40
2008,08,27,13,30,4.50
2008,08,27,13,31,4.90
2008,08,27,13,32,2.40
2008,08,27,13,33,0.70
2008,08,27,13,34,1.70
2008,08,27,13,35,3.10
2008,08,27,13,36,5.60
2008,08,27,13,37,7.70
2008,08,27,13,38,4.70
2008,08,27,13,39,5.10
2008,08,27,13,40,2.70
2008,08,27,13,41,2.90
2008,08,27,13,42,3.50
2008,08,27,13,43,3.30
2008,08,27,13,44,4.70
2008,08,27,13,45,4.80
2008,08,27,13,46,5.20
2008,08,27,13,47,2.60
2008,08,27,13,48,1.30
2008,08,27,13,49,5.60
2008,08,27,13,50,8.10
2008,08,27,13,51,5.80
2008,08,27,13,52,3.80
2008,08,27,13,53,2.20
2008,08,27,13,54,7.50
2008,08,27,13,55,8.00
2008,08,27,13,56,3.50
2008,08,27,13,57,6.80
2008,08,27,13,58,2.30
2008,08,27,13,59,4.30
2008,08,27,14,00,2.90
2008,08,27,14,01,11.40
2008,08,27,14,02,7.20
2008,08,27,14,03,6.00
2008,08,27,14,04,1.90
2008,08,27,14,05,4.20
2008,08,27,14,06,1.10
2008,08,27,14,07,1.10
2008,08,27,14,08,6.90
2008,08,27,14,09,7.20
2008,08,27,14,10,6.70
2008,08,27,14,11,2.80
2008,08,27,14,12,3.00
2008,08,27,14,13,5.20
2008,08,27,14,14,5.40
2008,08,27,14,15,8.00
2008,08,27,14,16,3.00
2008,08,27,14,17,8.00
2008,08,27,14,18,2.00
2008,08,27,14,19,4.30
2008,08,27,14,20,5.60
2008,08,27,14,21,3.30
2008,08,27,14,22,8.00
2008,08,27,14,23,3.20
2008,08,27,14,24,2.40
2008,08,27,14,25,8.80
2008,08,27,14,26,2.30
2008,08,27,14,27,4.60
2008,08,27,14,28,3.80
2008,08,27,14,29,4.20
2008,08,27,14,30,2.40
2008,08,27,14,31,3.80
2008,08,27,14,32,1.80
2008,08,27,14,33,1.90
2008,08,27,14,34,4.00
2008,08,27,14,35,5.90
2008,08,27,14,36,3.70
2008,08,27,14,37,2.80
2008,08,27,14,38,0.20
2008,08,27,14,39,0.30
2008,08,27,14,40,4.70
2008,08,27,14,41,5.30
2008,08,27,14,42,5.30
2008,08,27,14,43,3.30
2008,08,27,14,44,2.10
2008,08,27,14,45,2.40
2008,08,27,14,46,5.10
2008,08,27,14,47,5.30
2008,08,27,14,48,8.10
2008,08,27,14,49,5.10
2008,08,27,14,50,6.50
2008,08,27,14,51,2.40
2008,08,27,14,52,1.40
2008,08,27,14,53,1.10
2008,08,27,14,54,4.40
2008,08,27,14,55,9.50
2008,08,27,14,56,8.10
2008,08,27,14,57,4.40
2008,08,27,14,58,3.60
2008,08,27,14,59,8.20
2008,08,27,15,00,5.50
2008,08,27,15,01,6.00
2008,08,27,15,02,5.60
2008,08,27,15,03,3.00
2008,08,27,15,04,3.10
2008,08,27,15,05,0.50
2008,08,27,15,06,1.50
2008,08,27,15,07,1.30
2008,08,27,15,08,5.90
2008,08,27,15,09,4.30
2008,08,27,15,10,2.40
2008,08,27,15,11,5.50
2008,08,27,15,12,6.40
2008,08,27,15,13,2.30
2008,08,27,15,14,3.60
2008,08,27,15,15,5.00
2008,08,27,15,16,12.70
2008,08,27,15,17,5.60
2008,08,27,15,18,1.50
2008,08,27,15,19,2.90
2008,08,27,15,20,2.30
2008,08,27,15,21,2.50
2008,08,27,15,22,2.90
2008,08,27,15,23,1.50
2008,08,27,15,24,1.80
2008,08,27,15,25,2.70
2008,08,27,15,26,1.70
2008,08,27,15,27,1.00
2008,08,27,15,28,3.20
2008,08,27,15,29,9.70
2008,08,27,15,30,6.40
2008,08,27,15,31,6.30
2008,08,27,15,32,2.40
2008,08,27,15,33,4.00
2008,08,27,15,34,2.70
2008,08,27,15,35,7.70
2008,08,27,15,36,4.40
2008,08,27,15,37,10.50
2008,08,27,15,38,8.70
2008,08,27,15,39,3.70
2008,08,27,15,40,4.40
2008,08,27,15,41,1.90
2008,08,27,15,42,4.50
2008,08,27,15,43,6.60
2008,08,27,15,44,11.90
2008,08,27,15,45,10.40
2008,08,27,15,46,10.50
2008,08,27,15,47,7.80
2008,08,27,15,48,3.00
2008,08,27,15,49,6.30
2008,08,27,15,50,1.20
2008,08,27,15,51,5.30
2008,08,27,15,52,14.80
2008,08,27,15,53,8.00
2008,08,27,15,54,2.80
2008,08,27,15,55,4.10
2008,08,27,15,56,8.90
2008,08,27,15,57,8.80
2008,08,27,15,58,1.90
2008,08,27,15,59,2.60
2008,08,27,16,00,4.90
2008,08,27,16,01,6.40
2008,08,27,16,02,7.80
2008,08,27,16,03,4.50
2008,08,27,16,04,3.80
2008,08,27,16,05,2.60
2008,08,27,16,06,2.80
2008,08,27,16,07,4.00
2008,08,27,16,08,5.90
2008,08,27,16,09,2.70
2008,08,27,16,10,3.60
2008,08,27,16,11,4.30
2008,08,27,16,12,2.30
2008,08,27,16,13,3.00
2008,08,27,16,14,3.50
2008,08,27,16,15,2.80
2008,08,27,16,16,7.50
2008,08,27,16,17,7.60
2008,08,27,16,18,8.40
2008,08,27,16,19,1.30
2008,08,27,16,20,1.80
2008,08,27,16,21,4.50
2008,08,27,16,22,3.70
2008,08,27,16,23,3.80
2008,08,27,16,24,4.60
2008,08,27,16,25,2.10
2008,08,27,16,26,7.90
2008,08,27,16,27,9.80
2008,08,27,16,28,4.10
2008,08,27,16,29,3.00
2008,08,27,16,30,6.70
2008,08,27,16,31,9.10
2008,08,27,16,32,13.20
2008,08,27,16,33,4.40
2008,08,27,16,34,2.90
2008,08,27,16,35,4.30
2008,08,27,16,36,0.40
2008,08,27,16,37,4.10
2008,08,27,16,38,3.90
2008,08,27,16,39,7.20
2008,08,27,16,40,9.50
2008,08,27,16,41,4.00
2008,08,27,16,42,2.30
2008,08,27,16,43,3.40
2008,08,27,16,44,3.20
2008,08,27,16,45,3.30
2008,08,27,16,46,6.90
2008,08,27,16,47,3.80
2008,08,27,16,48,2.60
2008,08,27,16,49,1.60
2008,08,27,16,50,3.00
2008,08,27,16,51,5.30
2008,08,27,16,52,6.40
2008,08,27,16,53,5.40
2008,08,27,16,54,4.20
2008,08,27,16,55,2.80
2008,08,27,16,56,3.80
2008,08,27,16,57,2.30
2008,08,27,16,58,3.10
2008,08,27,16,59,6.60
2008,08,27,17,00,9.70
2008,08,27,17,01,3.10
2008,08,27,17,02,3.80
2008,08,27,17,03,4.30
2008,08,27,17,04,1.90
2008,08,27,17,05,7.20
2008,08,27,17,06,5.30
2008,08,27,17,07,4.30
2008,08,27,17,08,6.40
2008,08,27,17,09,2.90
2008,08,27,17,10,2.10
2008,08,27,17,11,2.20
2008,08,27,17,12,7.10
2008,08,27,17,13,9.00
2008,08,27,17,14,3.60
2008,08,27,17,15,4.10
2008,08,27,17,16,6.70
2008,08,27,17,17,8.20
2008,08,27,17,18,1.60
2008,08,27,17,19,0.10
2008,08,27,17,20,4.90
2008,08,27,17,21,1.90
2008,08,27,17,22,0.40
2008,08,27,17,23,6.30
2008,08,27,17,24,5.00
2008,08,27,17,25,1.30
2008,08,27,17,26,3.90
2008,08,27,17,27,5.00
2008,08,27,17,28,1.80
2008,08,27,17,29,5.50
2008,08,27,17,30,4.30
2008,08,27,17,31,5.00
2008,08,27,17,32,3.30
2008,08,27,17,33,5.30
2008,08,27,17,34,4.30
2008,08,27,17,35,8.50
2008,08,27,17,36,7.60
2008,08,27,17,37,1.40
2008,08,27,17,38,4.10
2008,08,27,17,39,6.10
2008,08,27,17,40,3.60
2008,08,27,17,41,1.50
2008,08,27,17,42,5.30
2008,08,27,17,43,5.60
2008,08,27,17,44,3.30
2008,08,27,17,45,5.40
2008,08,27,17,46,4.40
2008,08,27,17,47,0.80
2008,08,27,17,48,2.20
2008,08,27,17,49,7.00
2008,08,27,17,50,3.70
2008,08,27,17,51,3.90
2008,08,27,17,52,1.50
2008,08,27,17,53,0.10
2008,08,27,17,54,0.90
2008,08,27,17,55,2.50
2008,08,27,17,56,3.90
2008,08,27,17,57,1.00
2008,08,27,17,58,2.20
2008,08,27,17,59,1.00
2008,08,27,18,00,1.60
2008,08,27,18,01,3.40
2008,08,27,18,02,2.00
2008,08,27,18,03,3.40
2008,08,27,18,04,3.70
2008,08,27,18,05,4.10